Aérodrome :
LOGIN :

S'inscrire | Disclaimer

   EN    FR    IT 

 










Légende :    VFR   VFR Marginal   IFR   IFR Intensif   IFR Très Intensif
Visi : 
Plafond : 
>= 8 km
>= 3000ft
5 à 8 km
1000 à 3000 ft
1500m à 5 km
500 à 1000 ft
800 à 1500m
200 à 500 ft
< 800m
< 200 ft
Symboles :   Orages  Brouillard  Fortes neiges  Fortes précipitations  Vent > 20 kt
SIGMETs :   Divers  Orages  Givrage  Turbulence  Onde Orograph.  Cendres Volcan.







- Altitude de l'aérodrome : 144 ft
- Code IATA : PGF
- Voir les cartes d'approche


LFMP - Perpignan

DERNIER METAR :
  • 210000Z AUTO 32007KT CAVOK 22/06 Q1021

METARs EXPIRÉS :
  • 202330Z AUTO VRB02KT CAVOK 21/05 Q1022
  • 202300Z AUTO 34005KT 300V010 CAVOK 22/05 Q1022
  • 202230Z AUTO 33007KT CAVOK 23/05 Q1022
  • 202200Z AUTO 34008KT CAVOK 23/04 Q1021

TAF TAF LFMP
Valide du 20 à 15h jusqu'au 21 à 15h UTC


201400Z 2015/2115 33013KT CAVOK
TEMPO 2015/2020 32015G30KT
BECMG 2104/2106 32005KT
BECMG 2109/2111 08010KT
ATIS : +33 4 68 63 75 12
Pas de NOTAMs connus pour ce terrain.



MET'MAP, la Météo Aéronautique d'un coup d'oeil ! - Copyright ORBIFLY Décembre 2007 - Disclaimer

ORBIFLY MET'MAP TEAM :

Programmation & Développement : Alexandra Zaïnal
Conception & Développement : Baudouin d'Aumeries
Co-Programmation & Développement : Marc-Olivier Méhu
Soutien technique & logistique : Manuel Goepfert

Contact : metmap@orbifly.com




SOURCES & CREDITS :

   NOAA